sat.trackr.live / text

‹ back to catalog

STARLINK-5899

NORAD 55949 · 2023-037AM

PAYLOAD ACTIVE UNKNOWN

§ Identity

Operator
Country
US
Launch date
2023-03-17
Launch site
AFWTR
Launch vehicle
Mass (kg)
RCS (m²)

Purposes: comms

External: N2YO · Heavens-Above · Gunter

§ Orbital elements

Epoch: 2026-09-20T22:13:29.258976Z

Period
96.11 min
Inclination
69.9985°
Eccentricity
0.0002830
Mean motion
14.98331823 rev/d
Perigee alt
570.1 km
Apogee alt
574.0 km
Semi-major
6,950.2 km
B*
-1.8069e-5
RAAN
132.3613°
Arg perigee
269.7369°
Mean anomaly
90.3465°
Rev number
19,371

§ Raw data

STARLINK-58991 55949U 23037AM  26263.92603309 -.00000309  00000+0 -18069-4 0  99992 55949  69.9985 132.3613 0002830 269.7369  90.3465 14.98331823193714

JSON: /api/v1/satellites/55949 · /tle

For live sub-satellite position, see the globe view (requires WebGL).

§ Visibility from observer

Set your observer location to see the next 7 days of passes ≥ 10°. The values pass through the URL so the page stays shareable.

No JS? Fill the form by hand. The geolocation button needs JavaScript.